Location: Buisson
(44.2787°N, 4.9969°E)
Time: 06:37:56
(UTC+00:00)

GP-B - Pass Details

Date: 18 April 2021
Orbit: 631 x 635 km, 89.8° (Epoch: 05 May)

Event Time Altitude Azimuth Distance (km) Brightness Sun altitude
Rises 03:51:50 0° 1° (N) 2,936 6.9 -10.7°
Reaches altitude 10° 03:54:04 10° 2° (N) 2,023 6.1 -10.4°
Maximum altitude 03:58:31 88° 94° (E) 638 3.1 -9.7°
Drops below altitude 10° 04:02:56 10° 182° (S) 2,005 5.4 -8.9°
Sets 04:05:08 0° 183° (S) 2,908 6.2 -8.6°
